Regional Weather Roundup
Issued by NWS Wakefield, VA

Home | Current Version | Previous Version | Graphics & Text | Print | Product List | Glossary On
Versions: 1 2 3 4 5 6 7 8 9 10 11 12 13 14 15 16 17 18 19 20 21 22 23 24 25 26 27 28 29 30 31 32 33 34 35 36 37 38 39 40 41 42 43 44 45 46 47 48 49 50
000
ASUS41 KAKQ 221115
RWRAKQ

REGIONAL WEATHER ROUNDUP
NATIONAL WEATHER SERVICE WAKEFIELD VA
700 AM EDT FRI MAY 22 2015

Note: "fair" indicates few or no clouds below 12,000 feet with no
significant weather and/or obstructions to visibility. * = Denotes
station may not report precipitation (e.g., rain,snow,etc.),
thunder or fog.

VAZ042-051-052>054-056-221200-
NORTHERN VIRGINIA

CITY           SKY/WX    TMP DP  RH WIND       PRES   REMARKS
WASH NATIONAL  SUNNY     54  44  69 W6        30.06R
DULLES         SUNNY     51  43  74 NW12      30.05R
FORT BELVOIR   SUNNY     45  44  94 SE1       30.06R FOG
QUANTICO       SUNNY     52  43  71 NW10      30.07R
FREDERICKSBRG* SUNNY     51  50  98 SW3       30.07R
STAFFORD*      SUNNY     49  44  83 NW6       30.11R
WARRENTON      SUNNY     50  46  85 SW5       30.07R
CULPEPER*      SUNNY     45  43  91 CALM      30.08R
MANASSAS*      SUNNY     52  45  76 NW6       30.06
LEESBURG*      SUNNY     52  45  76 N3        30.07R
WINCHESTER     SUNNY     46  39  76 SE3       30.07R
FRONT ROYAL*   FAIR      46  43  87 S6        30.07R
LURAY*         FAIR      52  43  71 S8        30.10R
$$

VAZ048-049-060>072-079>083-221200-
CENTRAL AND SOUTH CENTRAL VIRGINIA

CITY           SKY/WX    TMP DP  RH WIND       PRES   REMARKS
RICHMOND       MOSUNNY   54  48  80 CALM      30.09R
CHESTERFIELD*  NOT AVBL
PETERSBURG*    SUNNY     54  49  82 W3        30.10R
HANOVER        SUNNY     49  49 100 CALM      30.10R FOG
TAPPAHANNOCK*  SUNNY     51  45  78 W6        30.07R
QUINTON*       FAIR      51  47  86 NW6       30.08R
CHARLOTTSVILLE SUNNY     53  40  61 CALM      30.09R
GORDONSVILLE*  FAIR      52  42  68 W8        30.08R
ORANGE*        SUNNY     52  45  76 CALM      30.10R
LOUISA*        SUNNY     46  45  93 CALM      30.08R
BUMPASS*       FAIR      47  46  95 CALM      30.09R
FARMVILLE*     SUNNY     48  48 100 CALM      30.10R
CREWE*         FAIR      51  46  81 NW5       30.11R
FORT PICKETT*  FAIR      51  47  86 NW3       30.10R
CHASE CITY*    FAIR      53  51  95 CALM      30.12R
CLARKSVILLE*   FAIR      52  46  82 N6        30.10R
SOUTH HILL*    SUNNY     50  48  94 CALM      30.16R
LAWRENCEVILLE* FAIR      52  48  87 NW5       30.10R
EMPORIA*       SUNNY     50  50 100 CALM      30.11R
$$

VAZ088>098-221200-
SOUTHEAST VIRGINIA

CITY           SKY/WX    TMP DP  RH WIND       PRES   REMARKS
NORFOLK        SUNNY     56  46  69 NW13G22   30.06R
VIRGINIA BEACH PTSUNNY   58  48  69 NW14      30.05R
NORFOLK NAVAL  MOSUNNY   59  47  64 NW14      30.08R
WEST POINT*    SUNNY     55  47  74 NW6       30.09R
SALUDA*        FAIR      56  47  72 NW13G23   30.06R
NEWPORT NEWS   SUNNY     57  48  72 NW6       30.07R
LANGLEY AFB    SUNNY     55  47  74 N13       30.05R
FORT EUSTIS    SUNNY     55  48  75 NW10G23   30.05R
WILLIAMSBURG*  SUNNY     54  52  94 NW8       30.08R
HR EXEC AP*    FAIR      52  48  87 NW3       30.09R
FRANKLIN*      SUNNY     52  51  97 NW5       30.09R
WAKEFIELD      SUNNY     54  51  90 CALM      30.09R
$$

VAZ020-022-025-037-045-221200-
WEST CENTRAL AND SOUTHWEST VIRGINIA

CITY           SKY/WX    TMP DP  RH WIND       PRES   REMARKS
STAUNTON*      SUNNY     43  40  90 CALM      30.14R
WAYNESBORO*    FAIR      48  37  67 CALM      30.12R
HOT SPRINGS VA CLEAR     39  37  91 NW10G18   30.11R
LYNCHBURG      CLEAR     53  39  59 NW8G20    30.13R
DANVILLE       CLEAR     53  43  68 NW5       30.14R
SOUTH BOSTON*  FAIR      49  45  85 W5        30.13R
MARTINSVILLE   CLEAR     45  45 100 CALM      30.18R
ROANOKE        PTCLDY    51  39  63 NW7       30.17R
BLACKSBURG     CLEAR     45  38  78 W5        30.20R
DUBLIN*        CLEAR     47  42  81 W6        30.20R
MARION*        PTCLDY    44  40  84 CALM      30.23R
HILLSVILLE*    CLEAR     44  38  82 NW13G18   30.16R
RICHLANDS*     FAIR      42  29  58 CALM      30.21R HAZE
WISE*          FOG       41  41 100 CALM      30.23R VSB<1/4
ABINGDON*      CLEAR     43  42  94 CALM      30.22R
$$

MDZ021>025-VAZ099-100-221200-
SOUTHERN MARYLAND AND THE DELMARVA PENINSULA

CITY           SKY/WX    TMP DP  RH WIND       PRES   REMARKS
PATUXENT RIVER SUNNY     53  46  77 W13       30.03R
BAY BRIDGE APT   N/A    N/A N/A N/A NW9G17    30.03R
LEONARDTOWN    SUNNY     50  45  81 W7        30.06R
DOVER          SUNNY     52  51  99 W7        29.96R
GEORGETOWN     SUNNY     51  48  89 W6        30.00R
EASTON         SUNNY     55  54  94 NW9       30.05R
CAMBRIDGE      SUNNY     57  46  67 NW9G17    30.01R
SALISBURY      SUNNY     52  49  89 W7        30.01R
OCEAN CITY     SUNNY     51  49  92 NW9       29.99R
WALLOPS ISLAND SUNNY     54  52  93 W9        30.02R
ACCOMACK*      MOSUNNY   55  50  82 NW9G17    30.03R
$$

NCZ012>017-030>032-221200-
NORTH CENTRAL AND EASTERN NORTH CAROLINA

CITY           SKY/WX    TMP DP  RH WIND       PRES   REMARKS
ROANOKE RAPIDS FAIR      52  52 100 CALM      30.10R
RALEIGH        PTCLDY    54  46  74 CALM      30.12R
ELIZABETH CITY MOSUNNY   54  51  90 NW9       30.07R
AHOSKIE*         N/A     53  51  93 CALM      30.09R
EDENTON*       SUNNY     55  52  88 N7        30.07S
CURRITUCK*     SUNNY     54  51  90 W3        30.07R
KILL DEVIL HLS MOSUNNY   57  53  85 NW6       30.05R
MANTEO         PTSUNNY   58  52  81 N10       30.06R
CAPE HATTERAS  CLOUDY    60  52  74 N9        30.05R
TARBORO*       FAIR      56  53  92 CALM      30.11R
GOLDSBORO      CLOUDY    59  55  87 N6        30.08R
WASHINGTON     MOSUNNY  N/A N/A N/A N3        30.09R
GREENVILLE     MOSUNNY   55  54  94 N3        30.11R
NEW BERN       CLOUDY    59  54  83 N9        30.10R
WILMINGTON     CLOUDY    60  56  86 N9        30.09R
$$

VAZ048-221200-
ELSEWHERE

CITY           SKY/WX    TMP DP  RH WIND       PRES   REMARKS
HARRISBURG PA  SUNNY     52  41  66 NW12      30.00R
BALTIMORE      SUNNY     50  45  83 SW6       30.02R
ANNAPOLIS      SUNNY     51  46  83 W8        30.02R
ANDREWS AFB    SUNNY     52  45  75 W8        30.04R
PHILADELPHIA   SUNNY     53  44  71 W10       29.97R
HENDERSON NC   CLEAR     50  46  86 CALM      30.11R
GREENSBORO     PTCLDY    53  43  68 N3        30.14R
ROCKY MOUNT    MOSUNNY   57  54  89 N7        30.10R
$$

VAZ100-221200-
MARINE

STATION/POSITION TIME  TEMP    WIND        PRES    WAVE   SWELL
                       AIR SEA DIR/SP/G            HT/PER HT/PER
                 (UTC) (F)     (DEG/KT/KT) (MB)    (FT/S) (FT/S)
BRANDYWINE LGT   1000   55 62  330/ 18/ 23 1014.3R
CAPE MAY NJ      1000   57 65  300/  8/ 20 1013.7R
LEWES DE         1000   53 63  280/ 11/ 14 1014.5R
15NM E FENWICK I 1050   55 58              1014.4R   4/ 4
OCEAN-CITY-INLET 1000   52 59  330/ 13/ 17 1014.3R
WACHAPREAGUE VA  1000   56 63  310/  3/  9 1015.9R
THOMAS POINT MD  1100   53 65  290/ 19/ 21 1016.9R
GOOSES REEF MD   1100   55 65  320/ 19/ 21 1017.6R   0
BISHOPS HEAD MD  1000   54 61  320/  8/ 11 1015.7R
PINEY POINT MD   1000          350/ 18/ 20   N/A
CAMBRIDGE MD     1000   57 68  320/ 15/ 22 1015.6R
LEWISETTA VA     1000   56 66              1016.8R
RAPPAHANNOCK LGT 1000          320/ 24/ 29 1016.8R
STINGRAY PT      1100   56     310/ 16/ 17 1017.1R   2/ 2
YORK RVR RNG VA  1000   55     330/ 18/ 23 1016.5R
YORKTOWN VA      1000   56 70  330/ 16/ 20 1017.0R
JAMESTOWN VA     1100   56 73  340/ 12/ 16 1017.3R
DOMINION TERM VA 1000   57     350/  3/ 13 1017.2R
KIPTOPEKE VA     1000      71  320/ 20/ 24   N/A
CHES BAY BRIDGE  1000   57 67  310/ 18/ 21 1016.7R
CAPE HENRY VA    1000   57     310/ 19/ 25 1015.5R
CHESAPEAKE LGHT  1000   58     330/ 27/ 28 1016.5R
WILLOUBY STN VA  1000   56     330/ 13/ 17 1017.9R
CAPE HENRY BUOY  1028      61                N/A     5/ 6
1ST LANDING BUOY 1100      65              1017.1R
CAPE CHARLES BUO 1026      64                N/A     4/ 6   2/ 6
OFFSHORE WE BUOY 1011      60                N/A     5/ 6   2/13
64NM E OF VA BCH 1050   59 60  330/ 17/ 19 1015.8R   7/ 6   2/11
DUCK PIER NC     1000   58 66  310/ 14/ 17 1015.9R
44100 DUCK FRF   1024      60                N/A     6/ 7
44056 DUCK FRF   1011      64                N/A     5/ 7
OREGON INLET NC  1000   59 68  320/ 12/ 16 1016.8R
HATTERAS NC      1000   62 72  340/ 17/ 19 1016.1R
DIAMOND SHLS NC  1050   64 75  340/ 16/ 21 1017.0R   5/ 7   2/14
CAPE LOOKOUT NC  1100   61     350/ 13/ 16 1017.8R
$$



USA.gov is the U.S. government's official web portal to all federal, state and local government web resources and services.